Location: Newark
(34.9500°N, 139.9667°E)
Time: 19:44:22
(UTC+00:00)

Vanguard 2 Rocket - Pass Details

Date: 09 December 2019
Orbit: 554 x 3326 km, 32.9° (Epoch: 21 January)

Event Time Altitude Azimuth Distance (km) Brightness Sun altitude
Rises 12:58:32 0° 277° (W) 4,518 10.8 -66.2°
Enters shadow 12:59:27 - 276° (W) 4,179 10.6 -66.4°
Reaches altitude 10° 13:02:17 10° 273° (W) 3,108 - -66.9°
Maximum altitude 13:09:05 54° 199° (SSW) 971 - -68.2°
Drops below altitude 10° 13:13:28 10° 121° (ESE) 2,019 - -69.0°
Sets 13:15:27 0° 116° (ESE) 2,810 - -69.3°
